KC8YVF-1 Weather Reports


Display with metric or nautical units.
time (UTC)temp
F
wind
direction
speed
MPH
gust
MPH
rain 1hr
in
rain 24hr
in
rain mn
in
humidity
%
barometer
mb
20170817230727 80 203 0.0 0.0 0.00 0.39 0.39 79 990.5
20170817230344 80 225 1.0 3.0 0.00 0.39 0.39 80 990.6
20170817230227 80 225 0.0 0.0 0.00 0.39 0.39 80 990.8
20170817225726 80 225 0.0 0.0 0.00 0.39 0.39 80 990.7
20170817224843 81 180 0.0 0.0 0.00 0.39 0.39 80 990.8
20170817224727 81 180 0.0 0.0 0.00 0.39 0.39 80 990.7
20170817224227 81 180 0.0 0.0 0.00 0.39 0.39 81 990.5
20170817223726 81 158 0.0 0.0 0.00 0.39 0.39 81 990.5
20170817223344 81 158 0.0 0.0 0.00 0.39 0.39 81 990.5
20170817222727 81 180 0.0 0.0 0.00 0.39 0.39 82 990.5
20170817222226 81 180 0.0 1.0 0.00 0.39 0.39 82 990.5
20170817221843 81 158 0.0 0.0 0.00 0.39 0.39 82 990.5
20170817221727 81 158 1.0 1.0 0.00 0.39 0.39 82 990.5
20170817221227 81 158 0.0 0.0 0.00 0.39 0.39 82 990.8
20170817220727 81 158 0.0 0.0 0.00 0.39 0.39 83 990.7
20170817220344 80 158 0.0 0.0 0.00 0.39 0.39 83 990.8
20170817220227 80 158 2.0 6.0 0.00 0.39 0.39 83 990.8
20170817215226 80 180 0.0 0.0 0.00 0.39 0.39 83 990.8
20170817214843 80 180 0.0 0.0 0.00 0.39 0.39 83 990.8
20170817214726 80 180 0.0 0.0 0.00 0.39 0.39 83 990.8
20170817214227 80 158 0.0 0.0 0.00 0.39 0.39 84 990.9
20170817213726 80 158 0.0 0.0 0.00 0.39 0.39 84 990.9
20170817213343 80 158 0.0 0.0 0.00 0.39 0.39 84 991.1
20170817213226 80 158 0.0 0.0 0.00 0.39 0.39 84 991.1
20170817212730 80 158 0.0 0.0 0.00 0.39 0.39 84 991.1
20170817212227 80 158 0.0 0.0 0.00 0.39 0.39 83 991.2
20170817211844 80 158 0.0 0.0 0.00 0.39 0.39 83 991.2
20170817211727 80 158 0.0 0.0 0.00 0.39 0.39 83 991.5
20170817211227 80 158 0.0 0.0 0.00 0.39 0.39 83 991.5
20170817210344 80 158 0.0 0.0 0.00 0.39 0.39 84 991.5
20170817210227 80 180 0.0 0.0 0.00 0.39 0.39 84 991.6
20170817205226 81 180 0.0 0.0 0.00 0.39 0.39 85 991.8
20170817204843 81 158 0.0 0.0 0.00 0.39 0.39 85 991.8
20170817204726 81 158 0.0 0.0 0.00 0.39 0.39 85 991.6
20170817204226 81 180 0.0 0.0 0.00 0.39 0.39 86 991.5
20170817203725 80 158 0.0 0.0 0.00 0.39 0.39 87 991.6
20170817203342 80 158 0.0 0.0 0.00 0.39 0.39 88 991.5
20170817203225 79 158 0.0 0.0 0.00 0.39 0.39 88 991.5
20170817202726 79 158 0.0 0.0 0.00 0.39 0.39 88 991.8
20170817202226 78 180 0.0 0.0 0.00 0.39 0.39 88 991.8
20170817201844 78 158 0.0 0.0 0.00 0.39 0.39 88 992.1
20170817201727 77 158 0.0 0.0 0.00 0.39 0.39 88 991.9
20170817201227 77 180 0.0 0.0 0.00 0.39 0.39 88 992.2
20170817200726 77 158 0.0 0.0 0.00 0.39 0.39 89 992.2
20170817200343 77 158 1.0 6.0 0.00 0.39 0.39 89 992.2
20170817195726 76 158 0.0 0.0 0.00 0.39 0.39 89 992.2
20170817195227 76 180 0.0 0.0 0.00 0.39 0.39 89 992.4
20170817194844 76 158 0.0 0.0 0.02 0.39 0.39 89 992.5
20170817194727 75 158 0.0 0.0 0.02 0.39 0.39 89 992.5
20170817194227 75 180 0.0 0.0 0.02 0.39 0.39 89 992.5
20170817193726 75 158 0.0 0.0 0.02 0.39 0.39 89 992.5
20170817193343 75 158 0.0 0.0 0.02 0.39 0.39 88 992.6
20170817193226 75 158 0.0 0.0 0.02 0.39 0.39 88 992.6
20170817192726 75 158 1.0 2.0 0.02 0.39 0.39 88 992.8
20170817192226 76 180 0.0 0.0 0.02 0.39 0.39 89 992.8
20170817191843 76 158 0.0 0.0 0.04 0.39 0.39 89 993.1
20170817191726 76 158 0.0 0.0 0.04 0.39 0.39 89 993.1
20170817191226 76 180 0.0 0.0 0.06 0.39 0.39 89 992.9
20170817190725 76 158 0.0 2.0 0.08 0.39 0.39 96 993.1
20170817190342 76 158 0.0 0.0 0.08 0.39 0.39 96 993.1
20170817190225 76 158 2.0 3.0 0.10 0.39 0.39 94 993.1
20170817185726 76 158 0.0 2.0 0.10 0.39 0.39 89 993.2
20170817185227 75 158 0.0 0.0 0.10 0.36 0.39 89 993.2
20170817184843 75 158 0.0 0.0 0.08 0.36 0.36 89 993.2
20170817184726 75 158 0.0 0.0 0.08 0.36 0.36 89 993.2
20170817184227 75 158 0.0 0.0 0.08 0.36 0.36 89 993.2
20170817183727 75 158 0.0 0.0 0.08 0.36 0.36 89 993.3
20170817183343 75 158 0.0 0.0 0.08 0.36 0.36 89 993.4
20170817183225 75 158 0.0 0.0 0.08 0.36 0.36 89 993.3
20170817182726 75 158 0.0 0.0 0.08 0.36 0.36 88 993.5
20170817181843 75 158 0.0 0.0 0.06 0.34 0.34 88 993.6
20170817181726 75 158 0.0 0.0 0.06 0.34 0.34 88 993.9
20170817181227 75 158 0.0 0.0 0.04 0.30 0.32 88 993.9
20170817180727 75 158 0.0 0.0 0.02 0.30 0.30 88 993.9
20170817180342 75 158 0.0 0.0 0.02 0.30 0.30 88 993.9
20170817180226 75 158 0.0 0.0 0.00 0.28 0.28 88 993.9
20170817175726 75 158 0.0 0.0 0.00 0.28 0.28 88 993.9
20170817175227 75 158 0.0 0.0 0.00 0.28 0.28 88 994.0
20170817174844 75 158 0.0 0.0 0.00 0.28 0.28 88 994.2
20170817174729 75 158 1.0 2.0 0.00 0.28 0.28 88 994.2
20170817174226 75 158 0.0 0.0 0.00 0.28 0.28 87 994.2
20170817173342 75 158 0.0 0.0 0.00 0.28 0.28 88 994.2
20170817173226 75 158 0.0 0.0 0.00 0.28 0.28 88 994.2
20170817172726 75 158 1.0 2.0 0.00 0.28 0.28 88 994.2
20170817172227 75 158 0.0 0.0 0.00 0.28 0.28 88 994.5
20170817171844 75 158 0.0 0.0 0.00 0.28 0.28 88 994.5
20170817171727 75 158 0.0 0.0 0.00 0.28 0.28 88 994.5
20170817171227 75 158 0.0 0.0 0.00 0.28 0.28 88 994.5
20170817170727 75 158 0.0 0.0 0.00 0.28 0.28 88 994.5
20170817170342 74 158 1.0 0.0 0.00 0.28 0.28 88 994.8
20170817165726 74 180 0.0 0.0 0.00 0.28 0.28 88 994.9
20170817164844 74 180 0.0 0.0 0.00 0.28 0.28 88 994.9
20170817164727 74 158 0.0 0.0 0.00 0.28 0.28 88 994.9
20170817163726 73 158 0.0 0.0 0.00 0.28 0.28 88 995.2
20170817163344 73 158 0.0 0.0 0.00 0.28 0.28 88 995.2
20170817163227 73 158 0.0 1.0 0.00 0.28 0.28 88 995.2
20170817162726 73 158 0.0 0.0 0.00 0.28 0.28 88 995.3
20170817162227 73 158 0.0 0.0 0.00 0.28 0.28 88 995.3
20170817161844 73 158 0.0 0.0 0.00 0.28 0.28 88 995.2
20170817161727 73 158 0.0 0.0 0.00 0.28 0.28 88 995.5
20170817161227 73 158 0.0 0.0 0.00 0.28 0.28 88 995.5
20170817160727 72 158 0.0 0.0 0.00 0.28 0.28 88 995.5
20170817160344 72 158 0.0 0.0 0.00 0.28 0.28 88 995.5
20170817160227 72 158 0.0 0.0 0.00 0.28 0.28 88 995.5
20170817155726 72 158 0.0 0.0 0.00 0.28 0.28 88 995.2
20170817155225 72 158 0.0 0.0 0.00 0.28 0.28 88 995.2
20170817154842 72 158 0.0 0.0 0.00 0.28 0.28 88 995.3
20170817154726 72 158 1.0 0.0 0.00 0.28 0.28 88 995.4
20170817154225 72 158 0.0 0.0 0.00 0.28 0.28 88 995.3
20170817153727 72 158 1.0 2.0 0.00 0.28 0.28 88 995.5
20170817153344 72 158 1.0 2.0 0.00 0.28 0.28 88 995.4
20170817153227 72 180 0.0 0.0 0.00 0.28 0.28 88 995.4
20170817152227 72 158 0.0 0.0 0.00 0.28 0.28 88 995.4
20170817151843 72 158 0.0 0.0 0.00 0.28 0.28 88 995.4
20170817151727 72 158 0.0 0.0 0.00 0.28 0.28 88 995.4
20170817151227 73 158 1.0 2.0 0.00 0.28 0.28 88 995.5
20170817150343 73 158 0.0 0.0 0.00 0.28 0.28 88 995.5
20170817144842 72 158 0.0 0.0 0.00 0.28 0.28 88 995.5
20170817144726 72 180 3.0 8.0 0.00 0.28 0.28 88 995.5
20170817144229 72 180 0.0 0.0 0.00 0.28 0.28 89 995.5
20170817143727 72 158 1.0 0.0 0.00 0.28 0.28 89 995.5
20170817143343 72 135 0.0 0.0 0.00 0.28 0.28 89 995.6
20170817143226 71 135 0.0 1.0 0.00 0.28 0.28 89 995.8
20170817142726 71 180 0.0 0.0 0.00 0.28 0.28 89 995.9
20170817141843 71 158 0.0 0.0 0.00 0.28 0.28 89 995.9
20170817141726 71 158 1.0 8.0 0.00 0.28 0.28 89 995.9
20170817141226 71 158 0.0 0.0 0.00 0.28 0.28 89 995.9
20170817140726 70 180 0.0 2.0 0.00 0.28 0.28 89 996.0
20170817140343 70 180 0.0 2.0 0.00 0.28 0.28 89 995.9
20170817140227 70 180 0.0 0.0 0.00 0.28 0.28 89 995.9
20170817135727 70 180 0.0 0.0 0.00 0.28 0.28 89 996.2
20170817135227 70 180 0.0 0.0 0.00 0.28 0.28 89 995.9
20170817134843 69 180 0.0 0.0 0.00 0.28 0.28 89 995.9
20170817134726 69 180 1.0 5.0 0.00 0.28 0.28 88 996.2
20170817134226 69 225 0.0 0.0 0.00 0.28 0.28 88 996.2
20170817133343 69 225 0.0 0.0 0.00 0.28 0.28 88 996.2
20170817132727 69 180 1.0 0.0 0.00 0.28 0.28 88 996.2
20170817132226 68 158 0.0 0.0 0.00 0.28 0.28 88 996.6
20170817131843 68 158 0.0 0.0 0.00 0.28 0.28 88 996.6
20170817131726 68 158 0.0 0.0 0.00 0.28 0.28 88 996.6
20170817131226 68 158 0.0 0.0 0.02 0.28 0.28 88 996.7
20170817130726 68 180 0.0 0.0 0.02 0.28 0.28 88 996.9
20170817130342 68 158 0.0 0.0 0.02 0.28 0.28 88 996.9
20170817130226 68 158 1.0 0.0 0.02 0.28 0.28 88 996.9
20170817125226 68 180 0.0 0.0 0.02 0.28 0.28 88 996.9
20170817124844 68 135 0.0 0.0 0.02 0.28 0.28 88 996.9
20170817124727 67 158 0.0 0.0 0.02 0.28 0.28 87 996.9
20170817123342 67 180 0.0 2.0 0.14 0.28 0.28 86 996.9
20170817123226 67 158 0.0 0.0 0.14 0.28 0.28 86 996.9
20170817122227 67 158 0.0 0.0 0.20 0.28 0.28 86 996.9
20170817121844 67 158 0.0 0.0 0.22 0.28 0.28 86 996.9
20170817120342 66 180 0.0 0.0 0.22 0.26 0.26 84 997.1
20170817120228 66 180 0.0 1.0 0.22 0.26 0.26 84 997.1
20170817115726 66 180 0.0 0.0 0.22 0.26 0.26 84 996.9
20170817114844 66 180 3.0 8.0 0.24 0.26 0.26 83 997.0
20170817114727 66 158 0.0 3.0 0.24 0.26 0.26 82 997.1
20170817114227 67 158 2.0 3.0 0.22 0.22 0.24 81 997.2
20170817113344 67 180 0.0 0.0 0.14 0.14 0.14 80 997.2
20170817112227 67 158 0.0 0.0 0.08 0.08 0.08 78 997.6
20170817111843 67 158 0.0 0.0 0.06 0.06 0.06 77 997.6
20170817111726 68 180 3.0 6.0 0.06 0.06 0.06 77 997.6
20170817111227 68 158 0.0 0.0 0.06 0.06 0.06 76 997.6
20170817110343 68 158 0.0 0.0 0.04 0.04 0.04 76 997.6
20170817105726 69 158 0.0 0.0 0.04 0.04 0.04 74 997.3
20170817105228 69 158 0.0 0.0 0.04 0.04 0.04 73 997.3
20170817104843 70 158 0.0 0.0 0.02 0.02 0.02 72 997.2
20170817104726 70 158 0.0 0.0 0.02 0.02 0.02 72 997.2
20170817103726 71 158 0.0 0.0 0.00 0.00 0.00 70 997.5
20170817103343 71 158 0.0 0.0 0.00 0.00 0.00 70 997.6
20170817103226 71 158 0.0 0.0 0.00 0.00 0.00 69 997.6
20170817102726 72 158 0.0 5.0 0.00 0.00 0.00 68 997.6
20170817102227 72 158 0.0 0.0 0.00 0.00 0.00 68 997.6
20170817101843 72 180 1.0 2.0 0.00 0.00 0.00 68 997.5
20170817101227 72 158 0.0 1.0 0.00 0.00 0.00 68 997.2
20170817100343 71 158 0.0 5.0 0.00 0.00 0.00 68 997.3
20170817100226 71 158 0.0 1.0 0.00 0.00 0.00 68 997.2
20170817095727 71 158 0.0 0.0 0.00 0.00 0.00 68 997.2
20170817095227 71 180 2.0 6.0 0.00 0.00 0.00 68 997.2
20170817094844 71 180 5.0 8.0 0.00 0.00 0.00 68 997.2
20170817094727 71 158 0.0 0.0 0.00 0.00 0.00 68 997.2
20170817094226 71 180 0.0 7.0 0.00 0.00 0.00 68 997.2
20170817093726 71 180 2.0 6.0 0.00 0.00 0.00 68 997.2
20170817093343 71 158 0.0 2.0 0.00 0.00 0.00 68 997.2
20170817093226 71 158 0.0 0.0 0.00 0.00 0.00 68 997.2
20170817092726 71 180 0.0 2.0 0.00 0.00 0.00 69 997.3
20170817092226 71 180 0.0 0.0 0.00 0.00 0.00 69 997.6
20170817091848 71 158 0.0 0.0 0.00 0.00 0.00 69 997.6
20170817091726 71 158 2.0 3.0 0.00 0.00 0.00 69 997.6
20170817091227 71 180 0.0 5.0 0.00 0.00 0.00 69 997.6
20170817090727 71 158 0.0 0.0 0.00 0.00 0.00 69 997.6
20170817090343 71 158 0.0 0.0 0.00 0.00 0.00 69 997.6
20170817090227 71 158 0.0 0.0 0.00 0.00 0.00 69 997.6
20170817085728 71 158 0.0 0.0 0.00 0.00 0.00 69 997.6
20170817085227 71 158 0.0 0.0 0.00 0.00 0.00 69 997.8
20170817084843 71 158 2.0 0.0 0.00 0.00 0.00 69 997.9
20170817084726 71 158 0.0 0.0 0.00 0.00 0.00 69 997.9
20170817084226 71 158 0.0 0.0 0.00 0.00 0.00 69 997.9
20170817083726 71 158 0.0 0.0 0.00 0.00 0.00 69 997.9
20170817083343 71 158 0.0 0.0 0.00 0.00 0.00 69 997.9
20170817083232 71 158 0.0 0.0 0.00 0.00 0.00 69 998.1
20170817082727 71 158 0.0 0.0 0.00 0.00 0.00 69 998.0
20170817082227 71 158 0.0 0.0 0.00 0.00 0.00 69 997.9
20170817081844 71 158 0.0 0.0 0.00 0.00 0.00 69 998.2
20170817081727 71 158 0.0 0.0 0.00 0.00 0.00 69 998.3
20170817080343 70 180 0.0 0.0 0.00 0.00 0.00 69 998.3
20170817080226 70 180 0.0 0.0 0.00 0.00 0.00 69 998.3
20170817074843 70 158 0.0 0.0 0.00 0.00 0.00 70 998.6
20170817074726 70 158 0.0 0.0 0.00 0.00 0.00 70 998.6
20170817074227 70 158 0.0 0.0 0.00 0.00 0.00 70 998.6
20170817073727 70 158 0.0 0.0 0.00 0.00 0.00 70 998.6
20170817073344 70 158 0.0 0.0 0.00 0.00 0.00 70 998.7
20170817073227 70 180 1.0 8.0 0.00 0.00 0.00 70 998.7
20170817072726 70 158 0.0 0.0 0.00 0.00 0.00 70 998.9
20170817072227 70 158 0.0 0.0 0.00 0.00 0.00 70 998.9
20170817071844 70 158 0.0 0.0 0.00 0.00 0.00 71 999.0
20170817071727 70 135 0.0 0.0 0.00 0.00 0.00 71 999.3
20170817071226 70 158 1.0 1.0 0.00 0.00 0.00 71 999.2
20170817070726 70 158 0.0 0.0 0.00 0.00 0.00 71 999.3
20170817070344 70 158 0.0 0.0 0.00 0.00 0.00 71 999.3
20170817070227 70 158 0.0 0.0 0.00 0.00 0.00 71 999.3
20170817065726 70 180 0.0 0.0 0.00 0.00 0.00 71 999.3
20170817065227 70 180 1.0 2.0 0.00 0.00 0.00 71 999.3
20170817064843 70 158 0.0 0.0 0.00 0.00 0.00 71 999.3
20170817063727 70 158 0.0 5.0 0.00 0.00 0.00 72 999.5
20170817063344 70 158 0.0 0.0 0.00 0.00 0.00 72 999.6
20170817062727 70 180 0.0 0.0 0.00 0.00 0.00 72 999.6
20170817062226 70 180 0.0 0.0 0.00 0.00 0.00 72 999.6
20170817061844 70 180 0.0 0.0 0.00 0.00 0.00 72 999.6
20170817061227 70 180 0.0 0.0 0.00 0.00 0.00 72 999.8
20170817060343 70 180 0.0 0.0 0.00 0.00 0.00 73 1000.0
20170817060226 70 180 0.0 0.0 0.00 0.00 0.00 73 1000.0
20170817055226 70 158 0.0 0.0 0.00 0.00 0.00 73 1000.0
20170817054619 70 158 0.0 0.0 0.00 0.00 0.00 73 1000.0
20170817054227 70 135 0.0 0.0 0.00 0.00 0.00 73 1000.1
20170817053726 70 158 0.0 1.0 0.00 0.00 0.00 73 1000.0
20170817053226 70 158 0.0 0.0 0.00 0.00 0.00 73 1000.0
20170817053119 70 158 0.0 0.0 0.00 0.00 0.00 73 1000.0
20170817052726 70 158 0.0 0.0 0.00 0.00 0.00 73 1000.1
20170817052226 70 135 0.0 0.0 0.00 0.00 0.00 74 1000.3
20170817051726 70 135 0.0 0.0 0.00 0.00 0.00 74 1000.3
20170817051620 70 135 0.0 0.0 0.00 0.00 0.00 74 1000.3
20170817050727 70 113 0.0 0.0 0.00 0.00 0.00 74 1000.3
20170817050226 70 113 0.0 0.0 0.00 0.00 0.00 74 1000.3
20170817050119 70 113 0.0 0.0 0.00 0.00 0.00 74 1000.3
20170817045227 70 113 0.0 0.0 0.00 0.00 0.00 74 1000.3
20170817044727 70 113 0.0 0.0 0.00 0.00 0.00 74 1000.3
20170817044620 70 113 0.0 0.0 0.00 0.00 0.00 74 1000.3
20170817044227 70 135 0.0 0.0 0.00 0.00 0.00 74 1000.3
20170817043227 71 90 0.0 0.0 0.00 0.00 0.00 74 1000.3
20170817043119 71 90 0.0 2.0 0.00 0.00 0.00 73 1000.3
20170817042226 71 135 0.0 0.0 0.00 0.00 0.00 73 1000.6
20170817041726 71 135 0.0 0.0 0.00 0.00 0.00 73 1000.6
20170817041619 71 135 0.0 0.0 0.00 0.00 0.00 73 1000.6
20170817040726 71 158 0.0 0.0 0.00 0.00 0.00 73 1000.7
20170817040226 71 135 0.0 0.0 0.00 0.00 0.00 73 1001.0
20170817040119 71 135 0.0 0.0 0.00 0.00 0.00 73 1001.0
20170817035226 71 90 0.0 0.0 0.00 0.00 0.00 73 1000.6
20170817034726 71 90 0.0 0.0 0.00 0.00 0.00 72 1001.0
20170817034619 71 90 0.0 0.0 0.00 0.00 0.00 72 1001.0
20170817033119 71 68 0.0 0.0 0.00 0.00 0.00 72 1001.0
20170817032227 71 135 0.0 0.0 0.00 0.00 0.00 71 1001.0
20170817031727 72 113 0.0 0.0 0.00 0.00 0.00 71 1001.0
20170817031619 72 113 0.0 0.0 0.00 0.00 0.00 71 1001.0
20170817031228 72 113 0.0 0.0 0.00 0.00 0.00 71 1001.0
20170817030727 72 113 0.0 0.0 0.00 0.00 0.00 71 1001.1
20170817030228 72 113 0.0 0.0 0.00 0.00 0.00 71 1001.3
20170817030120 72 113 0.0 0.0 0.00 0.00 0.00 71 1001.3
20170817024727 73 135 0.0 0.0 0.00 0.00 0.00 70 1001.3
20170817024620 73 113 0.0 0.0 0.00 0.00 0.00 70 1001.3
20170817023726 73 113 0.0 0.0 0.00 0.00 0.00 69 1001.4
20170817023226 73 180 0.0 0.0 0.00 0.00 0.00 69 1001.3
20170817023119 73 203 0.0 0.0 0.00 0.00 0.00 69 1001.4
20170817022728 73 135 0.0 0.0 0.00 0.00 0.00 69 1001.3
20170817021726 74 113 0.0 0.0 0.00 0.00 0.00 68 1001.3
20170817021619 74 113 0.0 0.0 0.00 0.00 0.00 68 1001.3
20170817021227 74 113 0.0 0.0 0.00 0.00 0.00 68 1001.3
20170817020727 74 113 0.0 0.0 0.00 0.00 0.00 68 1001.3
20170817020227 74 135 0.0 0.0 0.00 0.00 0.00 67 1001.3
20170817020120 74 135 0.0 0.0 0.00 0.00 0.00 67 1001.3
20170817015227 75 135 0.0 0.0 0.00 0.00 0.00 67 1001.3
20170817014620 75 135 0.0 0.0 0.00 0.00 0.00 66 1001.3
20170817014227 75 113 0.0 0.0 0.00 0.00 0.00 66 1001.3
20170817013726 75 158 0.0 0.0 0.00 0.00 0.00 66 1001.3
20170817013227 76 135 0.0 0.0 0.00 0.00 0.00 65 1001.3
20170817013120 76 135 0.0 0.0 0.00 0.00 0.00 65 1001.3
20170817012727 76 135 0.0 0.0 0.00 0.00 0.00 65 1001.3
20170817012228 76 113 0.0 0.0 0.00 0.00 0.00 65 1001.2
20170817011620 76 113 0.0 0.0 0.00 0.00 0.00 64 1001.2
20170817011226 77 90 0.0 0.0 0.00 0.00 0.00 64 1001.0
20170817010728 77 135 0.0 0.0 0.00 0.00 0.00 64 1001.1
20170817010228 77 158 0.0 0.0 0.00 0.00 0.00 64 1001.0
20170817010120 77 90 0.0 0.0 0.00 0.00 0.00 63 1001.0
20170817005228 78 113 0.0 0.0 0.00 0.00 0.00 62 1001.0
20170817004727 78 158 0.0 0.0 0.00 0.00 0.00 62 1001.0
20170817004620 78 158 0.0 0.0 0.00 0.00 0.00 62 1001.0
20170817004227 78 158 0.0 0.0 0.00 0.00 0.00 62 1001.0
20170817003227 78 158 0.0 0.0 0.00 0.00 0.00 61 1001.0
20170817003119 78 158 0.0 0.0 0.00 0.00 0.00 61 1001.0
20170817002226 79 135 0.0 0.0 0.00 0.00 0.00 61 1000.8
20170817001620 79 158 0.0 0.0 0.00 0.00 0.00 60 1000.6
20170817001227 79 158 0.0 0.0 0.00 0.00 0.00 60 1000.6
20170817000120 79 180 0.0 0.0 0.00 0.00 0.00 59 1000.6
20170816235727 80 158 0.0 0.0 0.00 0.00 0.00 59 1000.6
20170816235228 80 158 0.0 0.0 0.00 0.00 0.00 59 1000.6
20170816234727 80 158 0.0 0.0 0.00 0.00 0.00 59 1000.6
20170816234620 80 180 0.0 3.0 0.00 0.00 0.00 58 1000.6
20170816234227 80 180 0.0 0.0 0.00 0.00 0.00 58 1000.6
20170816233227 80 135 0.0 0.0 0.00 0.00 0.00 58 1001.0
20170816233120 80 90 0.0 0.0 0.00 0.00 0.00 58 1000.9
20170816231726 81 158 0.0 7.0 0.00 0.00 0.00 57 1000.7
20170816231619 81 135 0.0 1.0 0.00 0.00 0.00 57 1000.7
20170816231228 81 113 0.0 0.0 0.00 0.00 0.00 57 1000.9